Wind_Speed
17 17 17 17 17 18 18 19 22 22 24 25 25 25 26 26 26 25 24 23 23 21 20 20 19 18 16 15 14 14 13 12 12 12 13 13 13 14 14 14 14 14 14
18 17 17 17 16 17 17 18 20 21 23 24 25 25 26 27 27 27 25 25 24 22 21 21 20 19 18 17 16 15 14 14 14 14 14 15 14 14 14 14 14 14 13
18 17 17 16 16 16 16 17 19 20 22 22 23 25 26 28 27 27 27 26 25 24 23 23 22 21 20 18 17 16 15 15 16 15 15 15 15 15 15 15 14 14 14
18 17 17 16 15 14 14 16 17 19 20 22 23 24 25 26 27 27 27 27 26 25 24 24 23 22 21 20 19 18 17 16 16 17 16 16 16 16 15 16 15 15 14
18 17 17 16 15 14 13 14 15 16 18 20 22 23 24 25 27 28 28 28 27 27 26 24 23 23 22 21 20 19 18 17 17 17 18 17 17 17 16 17 17 16 16
18 17 17 16 15 13 13 12 13 14 16 18 20 22 23 24 26 28 28 28 28 27 26 26 25 24 23 22 21 21 20 19 19 18 19 18 18 18 18 17 18 18 18
18 18 17 16 14 13 12 11 11 12 14 16 18 21 22 23 24 25 27 27 28 28 27 27 27 26 25 24 23 22 21 20 20 20 20 20 19 19 18 18 19 20 20
19 18 17 16 14 12 10 10 10 10 12 15 16 19 21 22 22 24 25 26 28 29 28 28 28 27 26 25 25 24 23 22 21 21 21 21 20 20 19 19 19 20 20
19 18 17 16 14 12 10 9 8 9 11 12 15 17 20 22 23 23 24 24 25 27 28 28 28 28 27 26 26 25 24 24 23 23 22 22 22 21 20 20 19 20 21
19 18 18 16 14 12 10 8 7 7 9 11 13 15 18 20 22 23 24 24 24 25 27 29 28 28 28 27 27 27 25 25 25 24 23 23 23 23 22 21 21 21 21
19 18 17 16 14 12 10 8 6 6 8 9 11 14 16 18 20 22 23 23 24 24 25 28 29 28 27 28 28 27 26 26 26 25 25 25 24 24 24 23 22 22 22
18 18 17 16 14 12 11 8 6 6 7 7 9 11 13 16 18 20 22 23 24 24 24 25 27 27 27 27 27 27 27 26 26 26 25 26 25 25 25 25 24 24 23
19 18 17 15 14 12 11 9 7 5 5 6 7 9 11 14 16 18 20 21 22 23 24 25 26 26 26 27 27 28 28 27 27 26 26 26 27 26 27 26 26 25 25
18 18 17 15 14 13 11 9 7 5 4 5 6 8 9 12 14 17 18 20 21 22 22 23 24 25 26 26 27 28 28 28 28 27 27 27 27 28 28 28 28 28 27
17 17 17 16 14 12 11 10 8 6 4 4 5 7 8 10 12 15 17 18 20 21 22 22 23 24 25 24 25 26 27 28 28 28 28 28 28 28 28 29 29 30 29
17 17 17 16 14 13 11 10 9 6 4 3 4 5 7 9 11 13 16 17 19 21 21 22 23 24 25 25 25 26 27 28 29 29 30 30 29 28 28 29 29 30 31
16 16 16 16 15 14 12 10 9 7 5 4 3 5 6 8 10 12 15 16 18 19 20 21 22 23 24 24 25 25 26 27 28 29 30 30 30 30 31 31 30 30 32
15 15 15 15 15 14 12 11 9 8 6 4 3 4 5 7 9 10 12 14 16 18 19 20 21 22 22 24 24 24 24 25 26 27 28 30 31 31 32 33 33 33 33
14 14 14 15 14 13 13 11 9 8 6 5 4 3 4 6 8 9 10 12 14 16 18 19 20 21 22 23 23 24 24 24 25 26 27 28 29 31 32 33 33 34 35
13 13 13 14 14 13 12 12 10 8 7 6 5 4 3 4 6 8 9 11 13 15 16 18 19 20 20 22 23 24 24 23 24 25 26 27 28 29 32 33 34 34 35
12 12 13 13 13 12 12 11 11 9 8 7 5 4 4 4 4 6 8 10 12 14 15 16 17 19 19 20 22 23 24 23 24 24 25 26 27 28 30 33 34 34 35
12 12 12 12 12 12 11 11 10 10 9 7 6 5 5 5 5 6 7 9 11 12 14 16 17 18 19 20 21 22 23 24 24 25 26 26 27 28 30 31 33 34 35
12 12 12 12 12 11 11 11 10 9 9 8 8 7 6 5 6 7 8 10 11 12 14 15 17 18 19 20 21 22 24 24 24 25 26 27 27 28 30 31 32 33 35
13 13 12 12 12 12 11 11 10 10 9 9 8 8 7 7 7 7 8 10 11 12 14 15 17 18 19 20 20 21 22 24 24 25 26 26 27 29 30 31 32 33 34
15 14 14 13 13 13 12 11 11 11 10 10 9 9 8 8 8 8 8 9 11 12 13 15 16 17 19 20 21 21 22 23 25 25 26 27 28 29 29 30 31 32 33
16 16 15 15 14 14 14 13 12 12 12 11 11 11 10 10 9 9 9 9 10 12 13 14 15 17 18 20 21 22 23 23 24 25 26 27 28 29 29 30 30 31 31
Wind_Direction
316 310 304 297 289 278 269 261 254 249 244 242 239 237 233 230 229 229 230 229 228 226 225 223 221 217 214 213 212 209 205 203 197 192 187 184 181 177 172 171 173 177 178
320 314 309 303 295 283 271 263 256 250 245 241 237 235 232 230 229 229 229 228 227 225 224 222 220 218 216 215 213 212 210 206 201 197 194 191 186 182 180 182 182 183 184
325 322 315 308 299 289 275 265 257 250 244 240 237 235 232 230 228 227 227 226 226 224 223 220 220 219 217 215 214 213 211 208 205 202 199 198 196 191 190 192 190 190 191
331 327 322 316 306 296 283 271 261 253 245 239 235 232 230 229 226 225 226 225 225 223 222 220 219 218 216 215 213 212 212 211 209 208 207 205 204 202 200 197 197 197 198
337 332 327 322 314 303 291 278 264 255 246 238 233 230 229 228 227 225 224 222 222 222 221 219 219 217 216 215 213 213 214 214 213 212 210 210 210 209 207 205 204 204 204
341 338 333 328 321 309 298 284 269 255 243 236 232 229 228 227 226 225 223 221 220 220 221 220 218 217 217 216 216 215 215 216 216 214 212 212 212 214 216 214 212 211 211
344 341 338 332 326 317 304 289 272 257 241 234 230 228 226 225 224 222 221 221 219 219 219 218 218 219 218 217 217 217 216 215 216 216 215 214 214 216 218 220 220 217 214
346 344 341 338 333 327 313 297 276 257 244 236 230 227 225 224 223 220 220 220 219 218 219 219 218 219 219 219 219 219 217 217 218 218 218 218 217 218 219 222 222 220 218
347 346 343 341 337 332 322 305 282 255 246 238 231 228 226 224 222 220 219 218 217 218 220 220 220 220 220 220 220 220 220 220 221 221 221 220 219 219 220 220 223 223 223
348 348 346 344 341 336 329 315 289 261 248 241 233 230 226 223 222 219 219 219 219 219 221 221 220 219 219 220 220 220 223 223 224 223 224 223 222 221 222 223 223 224 225
350 349 349 348 346 341 335 324 301 268 253 245 235 230 226 222 220 218 217 220 220 219 220 219 218 219 219 222 221 221 224 225 225 226 226 225 225 226 226 226 226 227 228
353 351 351 350 349 346 341 333 317 281 257 246 237 231 226 221 220 218 217 220 221 220 219 219 217 219 220 220 221 222 224 225 226 227 228 228 229 229 229 229 229 230 232
356 354 353 353 352 351 349 343 332 303 265 246 237 232 224 219 218 218 218 220 221 221 220 220 218 218 222 221 222 224 225 226 227 228 229 231 231 230 230 231 231 233 233
358 358 358 357 356 355 352 349 342 323 288 253 239 233 226 220 219 218 219 221 223 222 222 222 221 221 223 224 225 225 226 227 228 229 230 232 231 232 232 232 233 234 235
359 1 2 1 358 356 355 353 350 340 312 270 250 239 234 227 223 221 220 222 223 222 223 224 224 223 225 226 225 226 228 228 229 231 232 232 233 234 234 235 236 235 236
360 1 2 3 1 358 356 357 357 351 333 295 263 247 238 230 225 223 222 221 223 225 225 225 226 225 227 228 229 231 231 231 233 234 235 235 236 236 236 237 238 239 239
357 360 2 4 4 4 1 359 360 355 346 322 282 253 240 232 227 226 224 223 222 224 226 226 227 228 228 230 233 235 236 236 236 236 236 237 238 239 240 240 241 242 242
354 357 1 3 5 6 6 4 2 3 356 340 309 271 250 237 229 227 225 223 222 223 225 227 228 229 231 231 232 234 236 235 236 237 238 240 240 241 242 243 244 244 243
351 354 358 1 3 5 6 6 4 3 1 353 334 301 269 249 237 229 223 222 221 222 224 226 228 230 232 233 236 237 238 237 239 240 241 242 243 244 244 243 245 246 245
347 350 354 357 360 1 3 4 4 1 358 354 346 327 294 260 240 233 230 230 227 225 225 227 230 232 234 236 238 239 238 238 240 242 243 243 244 245 245 244 245 247 248
340 345 349 351 354 356 357 360 1 1 359 356 349 338 316 285 256 242 237 235 233 230 230 231 234 236 238 238 240 240 239 239 241 243 245 245 245 246 246 246 245 247 250
331 335 341 345 348 350 352 355 356 356 357 355 352 340 322 305 275 259 249 245 241 237 236 236 237 238 238 240 241 241 240 242 243 244 246 246 247 248 249 248 247 249 251
321 325 329 334 338 342 345 347 346 347 348 347 342 338 329 312 293 274 263 256 251 248 246 244 242 241 241 243 243 241 240 243 245 246 247 248 248 250 250 250 250 251 253
311 314 317 320 324 328 332 334 335 335 334 334 333 330 327 316 303 286 275 266 260 256 254 252 249 244 244 246 247 246 245 244 246 248 248 249 250 250 252 252 253 254 254
302 305 308 310 313 315 318 322 323 324 324 322 319 316 316 314 307 296 283 275 268 262 259 257 254 250 249 248 247 247 247 247 248 250 250 251 252 253 253 255 255 255 256
294 298 299 302 304 306 307 309 312 314 316 315 311 306 305 304 299 297 291 283 276 270 266 262 259 256 254 254 251 250 250 251 250 251 251 252 253 254 254 256 257 257 257
Height
5815 5813 5811 5809 5807 5806 5806 5806 5806 5807 5809 5811 5813 5816 5818 5821 5825 5828 5831 5834 5837 5841 5844 5846 5849 5852 5854 5856 5859 5861 5863 5864 5866 5867 5869 5871 5872 5874 5876 5878 5881 5883 5885
5811 5809 5806 5804 5802 5801 5800 5800 5801 5802 5803 5805 5807 5810 5813 5816 5820 5823 5826 5830 5833 5837 5840 5843 5846 5849 5852 5854 5857 5859 5861 5863 5864 5866 5868 5870 5872 5874 5876 5878 5881 5883 5884
5807 5805 5802 5800 5798 5796 5795 5795 5795 5796 5798 5799 5802 5804 5807 5811 5814 5818 5822 5825 5829 5833 5836 5839 5843 5846 5849 5852 5854 5857 5859 5861 5863 5865 5867 5869 5871 5873 5876 5878 5880 5882 5884
5804 5801 5799 5796 5794 5792 5791 5790 5791 5791 5792 5794 5796 5799 5802 5805 5809 5813 5817 5820 5824 5828 5832 5835 5839 5843 5846 5849 5852 5854 5857 5859 5861 5863 5866 5868 5870 5872 5874 5877 5879 5881 5883
5802 5798 5796 5793 5790 5789 5787 5786 5786 5786 5787 5789 5791 5794 5797 5800 5804 5808 5812 5815 5819 5823 5827 5831 5835 5839 5843 5846 5849 5852 5854 5857 5859 5861 5864 5866 5868 5871 5873 5875 5877 5879 5882
5799 5796 5793 5790 5787 5785 5784 5783 5782 5782 5783 5785 5787 5789 5792 5796 5799 5803 5807 5810 5814 5819 5823 5827 5831 5835 5839 5843 5846 5849 5851 5854 5857 5859 5862 5864 5866 5869 5871 5873 5875 5877 5880
5798 5794 5791 5787 5785 5782 5780 5779 5779 5779 5780 5781 5783 5785 5788 5791 5795 5798 5802 5806 5810 5814 5818 5822 5827 5831 5835 5839 5842 5846 5848 5851 5854 5856 5859 5861 5864 5866 5868 5871 5873 5875 5877
5796 5792 5789 5785 5782 5780 5778 5776 5776 5776 5776 5778 5779 5781 5784 5788 5791 5794 5798 5801 5805 5809 5813 5818 5822 5827 5831 5835 5839 5842 5845 5848 5851 5853 5856 5859 5861 5863 5866 5868 5870 5872 5874
5795 5791 5787 5784 5780 5778 5775 5774 5773 5773 5773 5775 5776 5778 5780 5783 5787 5790 5794 5797 5801 5805 5809 5813 5818 5822 5826 5830 5834 5837 5841 5844 5847 5850 5853 5855 5858 5860 5862 5865 5867 5869 5872
5793 5789 5785 5782 5779 5776 5774 5772 5771 5771 5771 5772 5773 5775 5777 5779 5783 5786 5790 5793 5797 5800 5804 5809 5813 5817 5821 5825 5829 5833 5836 5840 5843 5846 5849 5852 5854 5856 5859 5862 5864 5866 5868
5792 5788 5784 5781 5777 5774 5772 5770 5769 5769 5769 5769 5770 5772 5773 5776 5779 5782 5786 5790 5793 5796 5800 5804 5808 5812 5816 5820 5824 5828 5831 5835 5838 5842 5844 5847 5850 5853 5855 5858 5860 5862 5864
5791 5787 5783 5779 5776 5773 5771 5769 5767 5767 5767 5767 5768 5769 5771 5773 5776 5779 5782 5785 5789 5792 5796 5800 5804 5808 5811 5815 5819 5823 5827 5830 5833 5837 5840 5842 5845 5848 5851 5853 5856 5858 5860
5790 5786 5782 5779 5776 5773 5770 5768 5766 5765 5765 5765 5766 5767 5768 5770 5773 5775 5779 5782 5785 5788 5792 5796 5799 5803 5807 5810 5814 5818 5821 5825 5828 5832 5834 5837 5840 5843 5846 5848 5851 5853 5855
5789 5785 5782 5778 5775 5772 5770 5767 5765 5764 5764 5764 5764 5765 5766 5768 5770 5772 5775 5778 5781 5785 5788 5792 5795 5798 5802 5805 5809 5812 5816 5819 5823 5826 5829 5832 5835 5837 5840 5843 5846 5848 5850
5789 5785 5781 5778 5775 5772 5769 5767 5765 5763 5763 5762 5763 5763 5764 5766 5767 5770 5772 5775 5778 5781 5784 5788 5791 5794 5797 5800 5804 5807 5811 5814 5817 5820 5823 5826 5829 5832 5835 5837 5840 5842 5845
5789 5785 5782 5778 5775 5772 5769 5767 5764 5763 5762 5761 5761 5762 5763 5764 5765 5767 5769 5772 5774 5778 5780 5784 5787 5790 5793 5796 5799 5802 5805 5808 5811 5814 5817 5820 5823 5826 5828 5831 5834 5836 5838
5788 5785 5782 5778 5775 5772 5769 5767 5764 5763 5761 5761 5761 5761 5761 5762 5763 5764 5766 5768 5771 5774 5777 5780 5783 5786 5788 5791 5794 5797 5799 5802 5805 5808 5811 5814 5816 5819 5822 5824 5827 5829 5832
5788 5785 5781 5778 5775 5772 5769 5767 5765 5763 5761 5760 5760 5760 5760 5760 5761 5762 5764 5765 5768 5770 5773 5776 5778 5781 5784 5786 5789 5792 5794 5796 5799 5802 5804 5807 5810 5812 5815 5817 5820 5822 5824
5787 5784 5781 5778 5775 5772 5769 5767 5765 5763 5761 5760 5759 5759 5759 5759 5759 5760 5762 5763 5765 5767 5769 5772 5774 5777 5779 5782 5784 5786 5788 5791 5793 5795 5797 5800 5802 5805 5807 5809 5812 5814 5816
5786 5784 5781 5778 5775 5772 5770 5767 5765 5763 5761 5760 5759 5758 5758 5757 5758 5758 5760 5761 5763 5764 5766 5768 5770 5772 5774 5777 5779 5781 5783 5785 5787 5789 5791 5793 5795 5797 5799 5801 5804 5806 5808
5785 5783 5780 5778 5775 5772 5770 5767 5765 5763 5761 5760 5759 5758 5757 5756 5756 5757 5758 5759 5760 5761 5763 5765 5766 5768 5770 5772 5774 5775 5777 5779 5781 5783 5785 5787 5788 5790 5791 5793 5795 5797 5799
5784 5782 5779 5777 5774 5772 5769 5767 5765 5763 5761 5760 5758 5757 5756 5755 5755 5755 5755 5756 5757 5758 5759 5761 5762 5764 5765 5767 5768 5770 5772 5774 5775 5777 5778 5780 5781 5783 5784 5785 5787 5789 5790
5782 5780 5778 5775 5773 5771 5769 5766 5764 5763 5761 5759 5757 5756 5755 5754 5753 5753 5753 5753 5754 5755 5756 5757 5758 5759 5760 5762 5763 5764 5766 5767 5769 5770 5772 5773 5774 5775 5777 5778 5779 5780 5781
5779 5777 5775 5773 5771 5769 5767 5765 5763 5761 5760 5758 5756 5755 5753 5752 5751 5751 5750 5750 5751 5751 5752 5752 5753 5754 5755 5756 5757 5758 5759 5761 5762 5764 5765 5766 5767 5768 5769 5769 5770 5771 5772
5776 5774 5772 5770 5769 5767 5765 5763 5761 5760 5758 5756 5754 5753 5752 5750 5749 5748 5748 5747 5747 5747 5747 5748 5748 5749 5750 5751 5751 5753 5754 5755 5756 5757 5758 5759 5760 5760 5761 5761 5762 5762 5763
5771 5770 5768 5767 5765 5763 5762 5760 5759 5757 5755 5753 5752 5750 5749 5748 5747 5746 5745 5744 5744 5743 5743 5743 5743 5744 5745 5745 5746 5747 5748 5749 5749 5750 5751 5752 5752 5753 5753 5753 5754 5754 5754